Voltar ao catálogo

CZ-4B DEB

AtivoSSO
NORAD 35404·DEBRIS·🇨🇳 China

Lançado May 15, 2002 de Taiyuan Satellite Launch Center

Loading…

Próximas Passagens (próximas 24 horas)

TLE

AtualizadoSource: Space-Track

Época: Sep 14, 2026, 09:18 UTC

1 35404U 02024J   26257.38816154  .00000018  00000-0  29105-4 0  9992
2 35404  98.8060 304.6892 0051378 308.4804 116.3941 14.20018960254582

Acompanhe CZ-4B DEB em tempo real com AllMySat

Download on the App Store